Regional Weather Roundup
Issued by NWS

Home | Current Version | Previous Version | Text Only | Print | Product List | Glossary On
Versions: 1 2 3 4 5 6 7 8 9 10 11 12 13 14 15 16 17 18 19 20 21 22 23 24 25 26 27 28 29 30 31 32 33 34 35 36 37 38 39 40 41 42 43 44 45 46 47 48 49 50
000
ASUS43 KDMX 221307
RWRIA

WEATHER ROUNDUP FOR IOWA
NATIONAL WEATHER SERVICE DES MOINES IA
700 AM CST MON DEC 22 2014

NOTE: "FAIR" INDICATES FEW OR NO CLOUDS BELOW 12,000 FEET WITH NO
SIGNIFICANT WEATHER AND/OR OBSTRUCTIONS TO VISIBILITY.

* - THESE STATIONS ARE NOT NWS STATIONS...THUS NOT UNDER NWS
QUALITY CONTROL.  THEY ALSO DO NOT REPORT WEATHER SUCH
AS PRECIPITATION OR FOG.

IAZ001>003-012>014-020>022-031>034-043>046-221400-
   NORTHWEST IOWA

CITY           SKY/WX    TMP DP  RH WIND       PRES   REMARKS
CARROLL *      CLOUDY    39  39 100 SE15      29.58S FOG     WCI  31
CHEROKEE *     LGT RAIN  39  39 100 S15       29.54S WCI  31
DENISON *      MIX PCPN  41  41 100 S15       29.53S
LE MARS *      MIX PCPN  41  41 100 S9G17     29.50S
ORANGE CITY *  LGT RAIN  41  39  93 S9G16     29.50S
SHELDON *      MIX PCPN  39  39 100 SE15G21   29.50S WCI  31
SIOUX CITY     LGT RAIN  43  41  93 S13       29.50F FOG
SPENCER        LGT RAIN  40  38  93 SE15      29.55S FOG     WCI  32
STORM LAKE *   MIX PCPN  39  39 100 S17       29.55S WCI  30
$$

IAZ055>058-069>071-079>083-090>094-221400-
   SOUTHWEST IOWA

CITY           SKY/WX    TMP DP  RH WIND       PRES   REMARKS
ATLANTIC *     MIX PCPN  41  39  93 SE13      29.57S
AUDUBON *      DRIZZLE   39  36  87 SE9       29.58F WCI  33
CLARINDA *     MIX PCPN  41  39  93 S7        29.61S
COUNCIL BLFS * MIX PCPN  41  41 100 S13       29.54S
CRESTON *      CLOUDY    39  39 100 SE15      29.61S FOG     WCI  31
HARLAN  *      MIX PCPN  41  41 100 S13       29.59S
LAMONI         CLOUDY    39  36  89 SE10      29.63F WCI  32
RED OAK *      MIX PCPN  41  41 100 SE9       29.58S
SHENANDOAH *   CLOUDY    41  41 100 SE13G20   29.58S FOG
$$

IAZ047>049-059>061-072>074-084-221400-
   CENTRAL IOWA

CITY           SKY/WX    TMP DP  RH WIND       PRES   REMARKS
AMES           LGT RAIN  38  36  92 SE12      29.65S FOG     WCI  30
ANKENY *       CLOUDY    39  37  93 SE10      29.65F WCI  32
CHARITON *     CLOUDY    39  37  93 SE12      29.66F WCI  32
DES MOINES     LGT RAIN  40  37  89 SE13      29.65F WCI  32
GRINNELL*      DRIZZLE   37  36  93 SE12      29.69F WCI  30
KNOXVILLE *    MIX PCPN  39  36  87 SE10      29.66F WCI  32
MARSHALLTOWN   CLOUDY    36  35  96 SE14      29.67F FOG     WCI  27
PELLA *        DRIZZLE   39  36  87 SE9       29.70S WCI  33
PERRY *        LGT RAIN  39  39 100 SE13      29.61F WCI  32
$$

IAZ004>006-015-016-023>025-035-036-221400-
   NORTH CENTRAL IOWA

CITY           SKY/WX    TMP DP  RH WIND       PRES   REMARKS
ALGONA *       FOG       37  37 100 SE16      29.60S VSB 3/4 WCI  28
CLARION *      CLOUDY    37  37 100 SE16G23   29.63S FOG     WCI  28
ESTHERVILLE    FOG       37  37 100 SE18      29.57S VSB 1   WCI  27
FORT DODGE *   CLOUDY    39  36  87 SE9       29.61F WCI  33
MASON CITY     CLOUDY    36  35  96 SE16      29.66F FOG     WCI  26
FOREST CITY *  LGT RAIN  36  36 100 SE14      29.63F WCI  27
IOWA FALLS *   DRIZZLE   37  36  93 SE15      29.67S WCI  28
$$

IAZ007>011-017>019-026>030-037>042-050>054-066-221400-
   NORTHEAST IOWA

CITY           SKY/WX    TMP DP  RH WIND       PRES   REMARKS
CEDAR RAPIDS   CLOUDY    36  33  89 SE9       29.74S WCI  29
CHARLES CITY * CLOUDY    36  36 100 SE15      29.70S FOG     WCI  26
CLINTON *      CLOUDY    36  30  80 SE14      29.84F WCI  27
DECORAH *      CLOUDY    34  34 100 SE9G16    29.73F FOG     WCI  26
DUBUQUE        CLOUDY    33  30  88 SE17      29.78F FOG     WCI  22
MONTICELLO *   CLOUDY    36  36 100 SE13      29.77F WCI  27
OELWEIN *      CLOUDY    34  34 100 SE16      29.73F FOG     WCI  23
WATERLOO       CLOUDY    36  34  92 SE17      29.71S WCI  26
$$

IAZ064-065-067-068-078-221400-
   EAST CENTRAL IOWA

CITY           SKY/WX    TMP DP  RH WIND       PRES   REMARKS
DAVENPORT      CLOUDY    37  31  78 SE13      29.80F WCI  29
IOWA CITY      CLOUDY    37  33  85 SE8       29.77F WCI  31
MT. PLEASANT * CLOUDY    37  32  81 SE10      29.74F WCI  30
MUSCATINE *    CLOUDY    39  32  75 SE9       29.78F WCI  33
QUAD CITIES    CLOUDY    37  32  82 SE10      29.80F WCI  30
$$

IAZ062-063-075>077-085>089-095>099-221400-
   SOUTHEAST IOWA

CITY           SKY/WX    TMP DP  RH WIND       PRES   REMARKS
BURLINGTON     LGT RAIN  38  32  79 SE13      29.75F WCI  30
FAIRFIELD *    CLOUDY    37  34  87 SE10      29.72F WCI  30
FORT MADISON * CLOUDY    39  36  87 SE9       29.76F WCI  33
KEOKUK *       CLOUDY    39  34  81 SE12      29.73F WCI  32
OSKALOOSA *    CLOUDY    37  36  93 SE12      29.70F WCI  30
CENTERVILLE *  CLOUDY    37  37 100 SE10      29.69F WCI  30
OTTUMWA        CLOUDY    39  34  82 SE12      29.69F WCI  32
WASHINGTON *   CLOUDY    39  37  93 SE10      29.74F WCI  32
$$

ABBREVIATIONS USED IN REMARKS
   TC - TEMPERATURES IN CELSIUS
  WCI - WIND CHILL INDEX
   HX - HEAT INDEX
  VSB - VISIBILITY
$$




USA.gov is the U.S. government's official web portal to all federal, state and local government web resources and services.